Terug naar het overzicht.

Heleen de Jong

Heleen de Jong

Opgehaald
€ 4 301,00

Een aantal jaar geleden hebben wij kennisgemaakt met de jongeren hospice Xenia. Mijn man Leen de Jong heeft hier de laatste 15 dagen van zijn leven doorgebracht. Wat Xenia zo bijzonder maakt is dat dit een hospice is voor jongvolwassenen in de leeftijd van16 tot 45 jaar. Helaas moeten we er ook bij stilstaan dat ook jongvolwassenen in een laatste levensfase kunnen belanden en dat zij een andere benadering en levenswijze hebben. Hoe mooi is het dat er een hospice bestaat die hierop inspeelt. Wij hebben bijvoorbeeld het "eindfeest" zoals Leen dit noemde, met zijn vrienden houden in de woonkamer van de hospice en de dag erna werd het onze trouwlocatie.
Door Corona is Xenia niet in de gelegenheid evenementen te organiseren die de benodigde financiële middelen opbrengen om alle kosten te dekken. Vandaar dat ik meedoe aan de Levenswandeling van Xenia om zoveel mogelijk geld binnen te "lopen".

Steun Heleen de Jong op social media: Deel deze acie op facebook Deel deze actie op twitter

Doneren

.00

Donaties

Datum Naam Bedrag
2021-07-02 18:05:41 Integrand Tilburg € 101,00
Namens iedereen uit het bestuur van Integrand Tilburg, fantastisch gedaan!
2021-06-22 12:35:22 Wilco van den Berg € 20,00
Goed gedaan Heleen!!
2021-06-22 10:24:57 Jeroen € 15,00
2021-06-21 16:57:42 Wille Donker advocaten € 250,00
Een mooie uitdaging voor een mooi doel! Veel succes! Carina de Bruin en Maarten van Essen
2021-06-19 20:48:20 Ria € 30,00
Hartstikke goed Heleen, nog even volhouden. Je kan het!!
2021-06-19 08:59:56 Teub Beltman € 50,00
Sponsoring Heleen van Tante Teub
2021-06-16 18:19:41 Wieteke En de Bende € 25,00
Op z’n Gronings: kon minder 😂 Trots op je, kanjer 😘
2021-06-14 21:58:25 Jacqueline Court € 10,00
2021-06-13 18:29:21 Pauline Schreuder-Kampshoff € 50,00
Misschien win je.
2021-06-09 14:34:39 Marco van schayk € 50,00
Hoi Heleen, super actie erg jammer dat dit nodig is. Sterkte
2021-06-09 12:24:11 Monique Meyer € 15,00
2021-06-08 21:25:24 Inge € 25,00
Mooi eerbetoon Heleen, succes met de laatste loodjes!
2021-06-08 20:21:08 Maike Jetten € 20,00
Wat een prachtig doel. Heel veel succes ❤️
2021-06-08 18:15:46 Astrid € 15,00
Heel veel succes nog!!
2021-06-07 18:17:25 Ellen € 50,00
Wat mooi dat je dit doet! Succes
2021-06-03 22:56:43 Carina € 25,00
Mooi doel! Succes!
2021-05-20 20:25:40 Daan € 25,00
Hoi Heleen, heel veel succes met de mooie en inspirerende actie.
2021-05-20 13:34:32 van der Plas € 500,00
2021-04-29 12:02:33 Pim en Suus € 25,00
2021-04-20 17:13:27 Martine Visser € 55,00
2021-04-19 18:30:12 Sheilla € 15,00
Nog even een steuntje voor het geweldige doel, succes Heleen 🥰
2021-04-19 09:14:55 Johan den Engelse € 20,00
Beste Heleen, veel succes met deze inspirerende actie!
2021-04-17 16:27:31 Chieneke Verdoes € 15,00
2021-04-16 21:16:21 Rob en judith € 10,00
Heel veel succes Heleen,zet hem op!💪
2021-04-16 20:47:02 M. J. A. Zwart € 25,00
Wat ben ik trots op jou. Groetjes Marcel Maddy
2021-04-16 19:26:21 Yvonne Wigchert € 25,00
Lieve Heleen, mooi doel en volg je hart en je droom. Veel succes. Liefs, Yvonne
2021-04-16 18:41:53 Ingeborg Heck € 25,00
Goed bezig💪🏽
2021-04-16 18:35:46 Esther Woerdt, van der € 25,00
Nog ietsje verder lopen wijffie! 😘
2021-04-16 18:23:26 IJsbrand & Corine € 25,00
👍👍
2021-04-16 18:00:14 Koen Van Den Broek € 10,00
🙌🏼🙌🏼🙌🏼 Goed bezig Heleen!! Lets go!!
2021-04-16 17:21:16 Anoniem € 10,00
2021-04-16 07:47:12 Mo € 15,00
Xxx je bent een kanjer
2021-04-15 10:53:46 Ingrid van den Broek € 25,00
Super goed initiatief Hopelijk haal je veel geld hiermee op.
2021-04-07 11:13:18 Tante Jannie € 10,00
Wel wat laat maar van harte
2021-04-01 19:08:58 Judith Boverhof € 10,00
Hi Heleen, echt mooi dat je je dit doet. Liefs Judith
2021-04-01 18:52:31 Wilma Van den oever € 15,00
Mooie actie Heleen!
2021-03-28 08:30:39 Paula Mommers € 25,00
Heel veel succes Heleen, heel mooi initiatief🥰
2021-03-27 22:12:16 Tante corrie € 10,00
Veel succes
2021-03-27 11:02:49 Anita Lagerberg € 20,00
2021-03-27 07:22:27 Marjolein Droog € 25,00
Superwoman!
2021-03-25 22:36:28 Marieke jakobs € 25,00
Goed bezig Heleen!
2021-03-24 13:26:47 Wil en Dick vd Niet - zus cobie € 10,00
Van tante Wil, succes met wandelen
2021-03-24 09:58:19 Willem ouwehand € 100,00
2021-03-23 18:26:19 Carl & Annie € 25,00
Veel succes en zet’m op Heleen!
2021-03-23 10:46:10 M.J.A. de Zwart € 50,00
Top ik ben trots op jou.
2021-03-23 09:08:16 J. Durieux Beheer BV € 100,00
2021-03-23 08:41:17 Art en Tamara € 25,00
2021-03-22 21:51:05 Cees van Duijn € 50,00
2021-03-22 19:12:46 Ronald en Nicolien € 30,00
Succes Heleen❤️
2021-03-22 18:59:56 Susanne Jense € 10,00
Zet 'm op Heleen!!
2021-03-22 15:42:18 Cobie € 100,00
Succes met lopen!
2021-03-22 13:09:04 Debbie € 10,00
Dit is een top prestatie ga ervoor
2021-03-22 12:07:06 Marcelle Staal € 25,00
Succes en veel wandelplezier.
2021-03-22 11:56:23 koos en jessica € 25,00
succes!!!
2021-03-22 09:07:42 Susanne Vroom € 15,00
2021-03-22 07:28:44 Lalita Bosma € 15,00
2021-03-22 07:16:01 Anoniem € 10,00
2021-03-21 22:49:28 Reny van haastrecht € 5,00
2021-03-21 20:48:48 REmagine € 250,00
Gewoon stap voor stap
2021-03-21 20:09:21 Monique Schuling € 15,00
Zet hem op!!!
2021-03-21 19:46:17 Jolanda, Brandaan HR Consultancy € 50,00
Voor onze lieve Leen!
2021-03-21 19:45:42 J Gaal € 10,00
Goed hoor Heleen. Top prestatie 👍🙏💋
2021-03-21 18:44:42 Paul Carriere € 25,00
2021-03-21 18:44:39 Lydia € 25,00
Succes
2021-03-21 17:59:57 Pauline Schreuder-Kampshoff € 50,00
Het is zo ver (150 km) nog maar even extra gedoneerd.
2021-03-21 15:39:05 R. Hoosemans € 25,00
Toppie, Heleen, dat je dit doet. Alle succes en veel plezier hiermee
2021-03-21 13:36:08 Driekus van de Ven € 10,00
Super initiatief! Succes Heleen.
2021-03-21 10:35:18 Katia van Duyvenbode € 20,00
Zet hem op! Super goed van je:)
2021-03-20 20:59:58 Margot Logman € 25,00
Go girl, en ik wandel graag een keer mee!
2021-03-20 13:36:00 Pauline Schreuder-Kampshoff € 25,00
Heel veel succes ❤️
2021-03-20 12:06:28 Astrid, Paul, Jathan, Linde € 25,00
Je bent een topper! Wandel ze!
2021-03-20 11:11:31 Wieteke en de club € 20,00
Topper ben je! Mooie kilometers, kanjer x
2021-03-20 10:04:44 Winnie & Ronald € 30,00
2021-03-20 00:30:50 Judith Hofstra € 10,00
2021-03-19 22:33:11 Liesbeth € 25,00
Mooi doel en goede actie, succes!
2021-03-19 21:19:14 Linda en Gert € 10,00
2021-03-19 21:04:47 Nanne en Ivo € 20,00
2021-03-19 20:57:09 Anoniem € 10,00
2021-03-19 20:44:00 Anne Marie Borgdorff € 25,00
Zet hem op!
2021-03-19 20:11:10 Paula Klijs en Anton Gulickx € 50,00
2021-03-19 19:51:03 Arjan en Joke € 10,00
Succes!
2021-03-19 19:40:50 Je nichtjes € 50,00
Girl power 💪🏻
2021-03-19 19:14:00 Nel Lievaart € 10,00
Goed hoor Heleen. Als je een keer een medewandelaar wilt laat het me dan weten dan loop ik een keer met je mee.
2021-03-19 17:36:13 Janine Luten € 25,00
Zet ‘m op Heleen 💪
2021-03-19 16:25:11 Angelique van veen € 25,00
Super actie van je Heleen! Ik wandel graag vaker met je mee voor support.
2021-03-19 15:15:10 Peter en Bianca Spierenburg € 25,00
Succes Heleen
2021-03-19 13:54:02 Robert € 30,00
Mooie actie Heleen, succes!
2021-03-19 11:43:04 Nol en Ans € 25,00
👊🏼 Go for it!
2021-03-19 11:08:55 Anoniem € 220,00
je bent de goedste
2021-03-19 10:50:45 Anoniem € 100,00
Heel veel succes Heleen!
2021-03-19 10:11:08 Mark van Keulen € 100,00
Succes! 👍🏿
2021-03-19 10:01:08 Paul en Corine € 50,00
Zet m op 👍🏻
2021-03-19 09:19:36 Nina Gribnau € 5,00
Heel veel succes x
2021-03-19 09:10:29 Lenny Gribnau € 25,00
2021-03-19 09:00:21 Yvette € 25,00
Just walk, you can do it!
2021-03-19 08:41:09 Barbara niemans € 25,00
Go for it !
2021-03-19 08:32:00 Marleen Spiekman € 50,00
Go for it!
2021-03-19 08:30:44 Corina € 50,00
Super aktie van je😽. Mooie wandelingen gewenst!
2021-03-19 08:22:01 Stemmingmakers € 50,00
Maak er n mooie wandeling van!
2021-03-19 08:18:54 Lineke en Maarten € 50,00
Goede actie Heleen ! Veel succes !
2021-03-19 08:02:12 John en Sheilla € 25,00
Supermooi Heleen! Heel veel succes 💪🏻🥰
2021-03-19 08:01:50 Marsha & Thomas € 50,00
Zet ‘m op!
2021-03-19 07:28:14 Pieter en Alice € 25,00
Succes Heleen 👍🏼
2021-03-18 23:17:41 Cinthia Laarhoven € 25,00
Veel wandelplezier! Zet hem op!
2021-03-18 23:17:12 IJsbrand & Corine € 25,00
Zet 'm op Heleen! Succes🚶‍♀️
2021-03-18 22:47:28 Kris charan € 25,00
Veel succes Heleen 👍👍
2021-03-18 22:34:35 Daniëlle Boot-Remmen € 10,00
Veel succes Heleen en geniet van het wandelen!
2021-03-18 22:27:30 Corinda € 5,00
Goed bezig Heleen.
2021-03-18 22:23:19 Carl Ulrich € 25,00
Mooi initiatief. Top van je en ik hoop dat je veel binnen sleept. Succes!
2021-03-18 22:22:16 Léon Van der Sluijs € 10,00
You go girl;-)
2021-03-18 22:21:30 Sandra van Heeswijk € 25,00
You go, girl!
Kloosterpoort 4, 2312 EM Leiden info@xenialeiden.nl 071-5135454